Simultaneous Nadir Overpasses (SNOs) Predictions

Prediction of SNOs between NOAA-21 and NOAA-19 Satellite Orbit:

Table of predicted SNOs for the next 14.0 days since TLE Epoch: 12/30/2023
Index Date (NOAA-21) Time (NOAA-21) Lat,Lon (NOAA-21) SZA (NOAA-21 ) Date (NOAA-19) Time (NOAA-19) Lat,Lon (NOAA-19) SZA (NOAA-19 ) Distance(km) Time Diff (sec)
1 01/01/2024 17:51:23 -73.95, 80.91 82.82 01/01/2024 17:50:08 -73.94, 80.67 82.79 7.61 75
2 01/01/2024 18:42:10 74.00,-111.91 97.25 01/01/2024 18:41:00 74.02,-111.86 97.28 2.52 70
3 01/01/2024 19:32:54 -74.00, 55.40 82.76 01/01/2024 19:32:05 -74.01, 55.36 82.74 1.63 49
4 01/01/2024 20:23:40 74.01,-137.30 97.25 01/01/2024 20:22:59 74.00,-137.41 97.25 3.66 41
5 01/01/2024 21:14:25 -74.06, 29.89 82.70 01/01/2024 21:14:03 -74.04, 29.94 82.72 2.61 22
6 01/01/2024 22:05:11 74.06,-162.81 97.30 01/01/2024 22:04:56 74.07,-162.71 97.31 3.06 15
7 01/01/2024 22:55:55 -74.07, 4.50 82.70 01/01/2024 22:56:01 -74.06, 4.51 82.71 0.22 6
8 01/01/2024 23:46:41 74.07, 171.80 97.30 01/01/2024 23:46:54 74.09, 171.86 97.32 3.19 13
9 01/02/2024 00:37:25 -74.07, -20.89 82.70 01/02/2024 00:37:59 -74.09, -20.92 82.69 2.20 34
10 01/02/2024 01:28:11 74.08, 146.41 97.31 01/02/2024 01:28:53 74.07, 146.31 97.30 3.27 42
11 01/02/2024 02:18:56 -74.13, -46.40 82.65 01/02/2024 02:19:57 -74.11, -46.34 82.68 2.11 61
12 01/02/2024 03:09:42 74.13, 120.90 97.36 01/02/2024 03:10:50 74.14, 121.01 97.35 3.48 68
13 01/02/2024 04:00:38 -74.71, -73.31 81.99 01/02/2024 04:01:44 -74.66, -70.33 82.22 87.71 66



Historial Predications of SNOs between NOAA-21 and NOAA-19
